TimeEDT,TemperatureF,Dew PointF,Humidity,Sea Level PressureIn,VisibilityMPH,Wind Direction,Wind SpeedMPH,Gust SpeedMPH,PrecipitationIn,Events,Conditions,WindDirDegrees,DateUTC
12:53 AM,82.9,75.0,77,29.77,10.0,SW,12.7,-,N/A,,Clear,220,2013-06-30 04:53:00
1:53 AM,82.9,75.0,77,29.77,10.0,SW,11.5,-,N/A,,Scattered Clouds,230,2013-06-30 05:53:00
2:36 AM,82.4,75.2,79,29.76,10.0,SW,15.0,23.0,N/A,,Mostly Cloudy,220,2013-06-30 06:36:00
2:53 AM,82.9,75.9,79,29.75,10.0,SW,16.1,21.9,N/A,,Mostly Cloudy,220,2013-06-30 06:53:00
3:50 AM,78.8,71.6,78,29.75,2.5,WSW,12.7,19.6,0.02,Rain,Heavy Rain,250,2013-06-30 07:50:00
3:53 AM,79.0,72.0,79,29.75,2.0,WSW,15.0,20.7,0.07,Rain,Heavy Rain,240,2013-06-30 07:53:00
4:08 AM,78.8,73.4,83,29.74,7.0,SSW,11.5,-,0.08,Rain,Light Rain,210,2013-06-30 08:08:00
4:53 AM,79.0,72.0,79,29.75,10.0,SSW,12.7,19.6,0.08,,Mostly Cloudy,200,2013-06-30 08:53:00
5:53 AM,80.1,73.0,79,29.75,10.0,SSW,10.4,-,N/A,,Clear,210,2013-06-30 09:53:00
6:53 AM,81.0,73.9,79,29.76,10.0,SW,15.0,-,0.00,Rain,Light Rain,220,2013-06-30 10:53:00
7:53 AM,81.0,72.0,74,29.78,10.0,SW,9.2,-,0.00,Rain,Light Rain,220,2013-06-30 11:53:00
8:53 AM,84.0,73.9,72,29.77,10.0,SW,6.9,-,0.00,,Clear,220,2013-06-30 12:53:00
9:26 AM,84.2,73.4,70,29.77,10.0,West,15.0,20.7,N/A,,Mostly Cloudy,260,2013-06-30 13:26:00
9:37 AM,82.4,71.6,70,29.78,10.0,West,12.7,-,N/A,,Scattered Clouds,260,2013-06-30 13:37:00
9:53 AM,82.0,71.1,69,29.79,10.0,WSW,9.2,-,N/A,,Partly Cloudy,250,2013-06-30 13:53:00
10:53 AM,82.9,72.0,69,29.78,10.0,SSW,6.9,-,N/A,,Mostly Cloudy,210,2013-06-30 14:53:00
11:53 AM,87.1,72.0,61,29.79,10.0,SSW,10.4,-,N/A,,Partly Cloudy,210,2013-06-30 15:53:00
12:53 PM,80.1,73.9,81,29.78,8.0,SW,3.5,-,0.01,Rain,Light Rain,230,2013-06-30 16:53:00
1:53 PM,82.9,73.0,72,29.76,10.0,West,6.9,-,0.00,,Clear,260,2013-06-30 17:53:00
2:53 PM,86.0,73.0,65,29.75,10.0,SW,9.2,-,N/A,,Clear,230,2013-06-30 18:53:00
3:53 PM,84.0,73.0,69,29.74,10.0,SSW,10.4,18.4,N/A,,Clear,210,2013-06-30 19:53:00
4:53 PM,86.0,73.0,65,29.75,10.0,SSW,11.5,-,N/A,,Mostly Cloudy,210,2013-06-30 20:53:00
5:53 PM,82.9,73.9,74,29.74,10.0,SSW,12.7,-,N/A,,Mostly Cloudy,200,2013-06-30 21:53:00
6:17 PM,82.4,71.6,70,29.75,10.0,SW,17.3,20.7,0.00,Rain,Light Rain,230,2013-06-30 22:17:00
6:22 PM,80.6,73.4,79,29.76,2.5,West,20.7,27.6,0.00,Rain,Light Rain,260,2013-06-30 22:22:00
6:29 PM,78.8,73.4,83,29.77,1.5,WNW,11.5,27.6,0.06,Rain,Heavy Rain,300,2013-06-30 22:29:00
6:33 PM,77.0,71.6,83,29.76,3.0,NW,13.8,20.7,0.07,Rain,Light Rain,310,2013-06-30 22:33:00
6:53 PM,75.0,71.1,87,29.75,9.0,NNW,6.9,-,0.07,Rain,Light Rain,330,2013-06-30 22:53:00
7:53 PM,78.1,70.0,76,29.75,10.0,Calm,Calm,-,0.00,,Clear,0,2013-06-30 23:53:00
8:53 PM,75.9,72.0,87,29.77,10.0,Calm,Calm,-,N/A,,Partly Cloudy,0,2013-07-01 00:53:00
9:53 PM,75.9,72.0,87,29.79,10.0,Calm,Calm,-,N/A,,Partly Cloudy,0,2013-07-01 01:53:00
10:53 PM,75.9,72.0,87,29.78,10.0,Calm,Calm,-,N/A,,Clear,0,2013-07-01 02:53:00
11:53 PM,75.9,72.0,87,29.79,10.0,Calm,Calm,-,N/A,,Scattered Clouds,0,2013-07-01 03:53:00